Location: Park Creek Village Mobile Home Park
(38.2885°N, 122.4714°W)
Time: 04:14:31
(UTC+00:00)

Cosmos 44 Rocket - Pass Details

Date: 14 December 2019
Orbit: 660 x 730 km, 65.1° (Epoch: 26 January)

Event Time Altitude Azimuth Distance (km) Brightness Sun altitude
Rises 14:23:39 0° 218° (SW) 3,067 6.4 -10.6°
Reaches altitude 10° 14:26:02 10° 222° (SW) 2,141 5.6 -10.2°
Maximum altitude 14:30:50 60° 303° (WNW) 780 3.3 -9.3°
Drops below altitude 10° 14:35:35 10° 23° (NNE) 2,111 5.8 -8.4°
Sets 14:37:55 0° 27° (NNE) 3,020 6.7 -8.0°
